Meridian, MS

11:27 PM CST on December 15, 2019 (GMT -0600)
Key

Weather History for KMEI - October, 2019

Change the Weather History Date:

Saturday, October 19, 2019

  Actual Average Record
Temperature  
Mean Temperature 68 °F 63 °F  
Max Temperature 80 °F 76 °F 92 °F (2016)
Min Temperature 55 °F 50 °F 30 °F (1948)
Degree Days  
Heating Degree Days 0 4  
Month to date heating degree days 26 47  
Since 1 July heating degree days 26 54  
Cooling Degree Days 2 2  
Month to date cooling degree days 189 70  
Year to date cooling degree days 2821 1993  
Growing Degree Days 18 (Base 50)    
Moisture  
Dew Point 58 °F    
Average Humidity 75    
Maximum Humidity 93    
Minimum Humidity 58    
Precipitation  
Precipitation 0.00 in 0.12 in 4.73 in (1970)
Month to date precipitation 4.62 2.22  
Year to date precipitation 47.80 44.61  
Sea Level Pressure  
Sea Level Pressure 29.78 in    
Wind  
Wind Speed 5 mph ()    
Max Wind Speed 13 mph    
Max Gust Speed 15 mph    
Visibility 10.0 miles    
Events      
T = Trace of Precipitation, MM = Missing Value Source: Averaged Metar Reports

Daily Weather History Graph

Daily Weather History Graph

Search for Another Location

Airport or City:

Astronomy

Oct. 19, 2019 Rise Set
Actual Time 7:01 AM CDT 6:17 PM CDT
Civil Twilight 6:36 AM CDT 6:42 PM CDT
Nautical Twilight 6:08 AM CDT 7:11 PM CDT
Astronomical Twilight 5:39 AM CDT 7:39 PM CDT
Moon 10:40 PM CDT (10/19) 12:20 PM CDT (10/19)
Length of Visible Light 12h 06m
Length of Day
11h 16m
Waning Gibbous, 69% of the Moon is Illuminated
Oct 19
Waning Gibbous
Oct 21
Last Quarter
Oct 27
New
Nov 4
First Quarter
Nov 12
Full

Hourly Weather History & Observations

Time (CDT) Temp. Heat Index Dew Point Humidity Pressure Visibility Wind Dir Wind Speed Gust Speed Precip Events Conditions
12:13 AM 55.9 °F - 51.1 °F 84% 29.84 in 10.0 mi NW 4.6 mph - N/A   Mostly Cloudy
12:58 AM 57.9 °F - 50.0 °F 75% 29.82 in 10.0 mi NNE 3.5 mph - N/A   Mostly Cloudy
1:33 AM 57.0 °F - 51.1 °F 81% 29.81 in 10.0 mi NNW 4.6 mph - N/A   Mostly Cloudy
1:58 AM 57.0 °F - 51.1 °F 81% 29.79 in 10.0 mi NNW 5.8 mph - N/A   Partly Cloudy
2:58 AM 57.0 °F - 51.1 °F 81% 29.79 in 10.0 mi NNW 4.6 mph - N/A   Clear
3:58 AM 57.0 °F - 51.1 °F 81% 29.79 in 10.0 mi NNW 4.6 mph - N/A   Clear
4:58 AM 57.0 °F - 51.1 °F 81% 29.80 in 10.0 mi North 6.9 mph - N/A   Overcast
5:54 AM 57.2 °F - 51.8 °F 82% 29.79 in 10.0 mi NE 6.9 mph - N/A   Overcast
5:58 AM 57.9 °F - 51.1 °F 78% 29.79 in 10.0 mi NE 6.9 mph - N/A   Overcast
6:51 AM 57.9 °F - 50.0 °F 75% 29.79 in 10.0 mi NE 5.8 mph - N/A   Scattered Clouds
7:58 AM 60.1 °F - 51.1 °F 72% 29.80 in 10.0 mi NNE 5.8 mph - N/A   Overcast
8:58 AM 62.1 °F - 53.1 °F 72% 29.82 in 10.0 mi North 5.8 mph - N/A   Overcast
9:58 AM 64.9 °F - 55.9 °F 73% 29.81 in 10.0 mi NE 9.2 mph - N/A   Overcast
10:29 AM 69.1 °F - 57.9 °F 68% 29.81 in 10.0 mi ENE 8.1 mph - N/A   Mostly Cloudy
10:44 AM 70.0 °F - 59.0 °F 68% 29.81 in 10.0 mi ENE 8.1 mph - N/A   Mostly Cloudy
10:58 AM 68.0 °F - 57.9 °F 70% 29.81 in 10.0 mi NNE 6.9 mph - N/A   Overcast
11:09 AM 68.0 °F - 59.0 °F 73% 29.81 in 10.0 mi NNE 8.1 mph - N/A   Overcast
11:42 AM 71.1 °F - 60.1 °F 68% 29.80 in 10.0 mi East 5.8 mph - N/A   Scattered Clouds
11:58 AM 73.0 °F - 61.0 °F 66% 29.79 in 10.0 mi North - - N/A   Scattered Clouds
12:58 PM 75.0 °F - 62.1 °F 64% 29.75 in 10.0 mi NE 6.9 mph - N/A   Scattered Clouds
1:58 PM 79.0 °F - 63.0 °F 58% 29.73 in 10.0 mi Variable 4.6 mph - N/A   Partly Cloudy
2:11 PM 80.1 °F 81.7 °F 64.0 °F 58% 29.73 in 10.0 mi NE 4.6 mph - N/A   Mostly Cloudy
2:58 PM 78.1 °F - 63.0 °F 60% 29.72 in 10.0 mi North 11.5 mph - N/A   Overcast
3:58 PM 78.1 °F - 64.0 °F 62% 29.72 in 10.0 mi North 10.4 mph - N/A   Overcast
4:43 PM 77.0 °F - 64.0 °F 64% 29.73 in 10.0 mi North 8.1 mph - N/A   Overcast
4:58 PM 75.9 °F - 64.0 °F 67% 29.72 in 10.0 mi NNE 6.9 mph - N/A   Overcast
5:58 PM 75.0 °F - 64.0 °F 69% 29.73 in 10.0 mi North 5.8 mph - N/A   Overcast
6:58 PM 70.0 °F - 63.0 °F 78% 29.75 in 10.0 mi NW 4.6 mph - N/A   Scattered Clouds
7:13 PM 70.0 °F - 64.0 °F 81% 29.76 in 10.0 mi NW 3.5 mph - N/A   Mostly Cloudy
7:58 PM 70.0 °F - 64.0 °F 81% 29.77 in 10.0 mi East 4.6 mph - N/A   Mostly Cloudy
8:41 PM 68.0 °F - 63.0 °F 84% 29.78 in 10.0 mi NE 5.8 mph - N/A   Scattered Clouds
8:58 PM 68.0 °F - 63.0 °F 84% 29.78 in 10.0 mi Calm Calm - N/A   Clear
9:58 PM 64.9 °F - 62.1 °F 90% 29.80 in 10.0 mi Calm Calm - N/A   Partly Cloudy
10:15 PM 64.9 °F - 62.1 °F 90% 29.82 in 10.0 mi Calm Calm - N/A   Mostly Cloudy
11:44 PM 64.0 °F - 61.0 °F 90% 29.83 in 10.0 mi Calm Calm - N/A   Mostly Cloudy
11:58 PM 64.0 °F - 61.0 °F 90% 29.82 in 10.0 mi Calm Calm - N/A   Overcast